BAW9VR EHAM-EDDH

Flight info

Callsign BAW9VR
Flight time 0h 41m
Altitude 31000
Route ANDIK M105 RIBSO RIBSO7A
Aircraft A321/M-SDE3FGHIRWY/LB1

Departure

Time 2026-05-07 18:28
Airport Amsterdam Airport Schiphol (EHAM)

Arrival

Time 2026-05-07 19:09
Airport Hamburg Helmut Schmidt Airport (EDDH)
Time Latitude Longitude Altitude Speed Heading
2026-05-07 18:06 52.30713 4.77089 -1 ft 0 kts
2026-05-07 18:07 52.30710 4.77155 -1 ft 0 kts
2026-05-07 18:16 52.30699 4.77155 -1 ft 4 kts
2026-05-07 18:17 52.30682 4.77146 -1 ft 4 kts 12°
2026-05-07 18:17 52.30666 4.77152 -1 ft 4 kts 314°
2026-05-07 18:17 52.30655 4.77177 -1 ft 0 kts 302°
2026-05-07 18:20 52.30658 4.77168 -1 ft 2 kts 300°
2026-05-07 18:21 52.30658 4.77127 -1 ft 7 kts 259°
2026-05-07 18:21 52.30618 4.77042 -1 ft 11 kts 196°
2026-05-07 18:21 52.30546 4.77085 -1 ft 11 kts 162°
2026-05-07 18:21 52.30484 4.77015 -1 ft 12 kts 237°
2026-05-07 18:22 52.30436 4.76891 -1 ft 14 kts 238°
2026-05-07 18:22 52.30397 4.76789 -1 ft 17 kts 238°
2026-05-07 18:22 52.30311 4.76567 -1 ft 18 kts 237°
2026-05-07 18:22 52.30243 4.76391 -1 ft 19 kts 238°
2026-05-07 18:23 52.30173 4.76205 -1 ft 19 kts 238°
2026-05-07 18:23 52.30101 4.76014 -1 ft 20 kts 238°
2026-05-07 18:23 52.30025 4.75817 -1 ft 21 kts 238°
2026-05-07 18:23 52.29947 4.75614 -1 ft 21 kts 238°
2026-05-07 18:24 52.29867 4.75405 -1 ft 22 kts 238°
2026-05-07 18:24 52.29844 4.75203 -1 ft 18 kts 294°
2026-05-07 18:24 52.29926 4.75040 -1 ft 19 kts 311°
2026-05-07 18:24 52.30014 4.74876 -1 ft 20 kts 311°
2026-05-07 18:25 52.30102 4.74714 4 ft 17 kts 311°
2026-05-07 18:25 52.30169 4.74591 10 ft 14 kts 311°
2026-05-07 18:25 52.30237 4.74463 10 ft 16 kts 311°
2026-05-07 18:25 52.30315 4.74315 2 ft 21 kts 310°
2026-05-07 18:26 52.30361 4.74131 -1 ft 16 kts 254°
2026-05-07 18:26 52.30283 4.73995 -1 ft 17 kts 214°
2026-05-07 18:26 52.30193 4.73863 -2 ft 18 kts 244°
2026-05-07 18:26 52.30257 4.73741 -4 ft 18 kts
2026-05-07 18:27 52.30299 4.73744 -4 ft 3 kts
2026-05-07 18:27 52.30406 4.73751 -3 ft 44 kts
2026-05-07 18:27 52.30957 4.73806 -1 ft 112 kts
2026-05-07 18:27 52.31929 4.73895 1 ft 165 kts
2026-05-07 18:28 52.33102 4.73980 586 ft 166 kts
2026-05-07 18:28 52.34213 4.74444 1310 ft 165 kts 21°
2026-05-07 18:28 52.35278 4.75128 2037 ft 164 kts 25°
2026-05-07 18:28 52.36320 4.75826 2621 ft 165 kts 25°
2026-05-07 18:29 52.37385 4.76547 3188 ft 167 kts 28°
2026-05-07 18:29 52.38367 4.77710 3461 ft 186 kts 48°
2026-05-07 18:29 52.39305 4.79331 3691 ft 207 kts 47°
2026-05-07 18:29 52.40361 4.81116 3871 ft 230 kts 47°
2026-05-07 18:30 52.41538 4.83087 4063 ft 254 kts 45°
2026-05-07 18:30 52.42986 4.84862 4617 ft 265 kts 28°
2026-05-07 18:30 52.44733 4.85912 5270 ft 271 kts 11°
2026-05-07 18:30 52.46655 4.86094 5936 ft 277 kts 355°
2026-05-07 18:31 52.48583 4.85892 6651 ft 279 kts 355°
2026-05-07 18:31 52.50537 4.85696 7337 ft 283 kts 356°
2026-05-07 18:31 52.52513 4.85936 7982 ft 288 kts 13°
2026-05-07 18:31 52.54370 4.87171 8715 ft 290 kts 32°
2026-05-07 18:32 52.55900 4.89249 9420 ft 291 kts 49°
2026-05-07 18:32 52.57162 4.91862 10112 ft 293 kts 52°
2026-05-07 18:32 52.58449 4.94560 10435 ft 310 kts 52°
2026-05-07 18:32 52.59826 4.97435 10569 ft 330 kts 52°
2026-05-07 18:33 52.61287 5.00484 10692 ft 349 kts 52°
2026-05-07 18:33 52.62819 5.03685 11028 ft 360 kts 52°
2026-05-07 18:33 52.64377 5.06941 11526 ft 365 kts 52°
2026-05-07 18:33 52.65954 5.10239 12122 ft 368 kts 52°
2026-05-07 18:34 52.67539 5.13567 12690 ft 371 kts 52°
2026-05-07 18:34 52.69131 5.16917 13032 ft 373 kts 52°
2026-05-07 18:34 52.70737 5.20295 13079 ft 373 kts 52°
2026-05-07 18:34 52.72343 5.23670 13099 ft 374 kts 52°
2026-05-07 18:35 52.73797 5.27208 13092 ft 373 kts 61°
2026-05-07 18:35 52.74841 5.31120 13100 ft 373 kts 71°
2026-05-07 18:35 52.75705 5.35161 13101 ft 373 kts 71°
2026-05-07 18:35 52.76572 5.39201 13102 ft 374 kts 71°
2026-05-07 18:36 52.77442 5.43239 13108 ft 373 kts 70°
2026-05-07 18:36 52.78310 5.47276 13105 ft 373 kts 70°
2026-05-07 18:36 52.79176 5.51311 13095 ft 373 kts 71°
2026-05-07 18:36 52.80043 5.55353 13093 ft 372 kts 70°
2026-05-07 18:37 52.80909 5.59388 13094 ft 373 kts 71°
2026-05-07 18:37 52.81774 5.63431 13093 ft 373 kts 71°
2026-05-07 18:37 52.82637 5.67472 13103 ft 373 kts 71°
2026-05-07 18:37 52.83500 5.71516 13100 ft 373 kts 71°
2026-05-07 18:38 52.84359 5.75556 13100 ft 374 kts 71°
2026-05-07 18:38 52.85224 5.79644 13618 ft 378 kts 71°
2026-05-07 18:38 52.86102 5.83801 14201 ft 379 kts 71°
2026-05-07 18:38 52.86966 5.87891 14700 ft 382 kts 71°
2026-05-07 18:39 52.87837 5.92016 15214 ft 384 kts 71°
2026-05-07 18:39 52.88715 5.96190 15739 ft 387 kts 71°
2026-05-07 18:39 52.89602 6.00415 16238 ft 390 kts 71°
2026-05-07 18:39 52.90502 6.04720 16778 ft 392 kts 71°
2026-05-07 18:40 52.91383 6.08944 17249 ft 395 kts 71°
2026-05-07 18:40 52.92281 6.13255 17754 ft 397 kts 71°
2026-05-07 18:40 52.93183 6.17591 18223 ft 400 kts 71°
2026-05-07 18:40 52.94103 6.22021 18644 ft 402 kts 71°
2026-05-07 18:41 52.95000 6.26359 19062 ft 404 kts 71°
2026-05-07 18:41 52.95909 6.30782 19462 ft 407 kts 71°
2026-05-07 18:41 52.96823 6.35235 19878 ft 409 kts 71°
2026-05-07 18:41 52.97743 6.39711 20266 ft 411 kts 71°
2026-05-07 18:42 52.98669 6.44214 20696 ft 413 kts 71°
2026-05-07 18:42 52.99598 6.48741 21079 ft 416 kts 71°
2026-05-07 18:42 53.00530 6.53305 21481 ft 418 kts 71°
2026-05-07 18:42 53.01463 6.57880 21890 ft 420 kts 71°
2026-05-07 18:43 53.02402 6.62495 22260 ft 423 kts 71°
2026-05-07 18:43 53.03341 6.67132 22668 ft 425 kts 71°
2026-05-07 18:43 53.04282 6.71794 23052 ft 427 kts 71°
2026-05-07 18:43 53.05228 6.76487 23439 ft 429 kts 71°
2026-05-07 18:44 53.06178 6.81202 23792 ft 431 kts 72°
2026-05-07 18:44 53.07130 6.85934 24147 ft 432 kts 72°
2026-05-07 18:44 53.08085 6.90690 24464 ft 434 kts 72°
2026-05-07 18:44 53.09041 6.95462 24799 ft 436 kts 72°
2026-05-07 18:45 53.09999 7.00256 25057 ft 438 kts 72°
2026-05-07 18:45 53.10955 7.05066 25113 ft 441 kts 72°
2026-05-07 18:45 53.11926 7.09978 25112 ft 451 kts 72°
2026-05-07 18:45 53.12915 7.14986 25112 ft 460 kts 72°
2026-05-07 18:46 53.13922 7.20088 25118 ft 468 kts 72°
2026-05-07 18:46 53.14945 7.25269 25116 ft 472 kts 72°
2026-05-07 18:46 53.15969 7.30473 25114 ft 473 kts 71°
2026-05-07 18:46 53.17314 7.35474 25111 ft 473 kts 61°
2026-05-07 18:47 53.18914 7.40273 25113 ft 474 kts 61°
2026-05-07 18:47 53.20518 7.45076 25114 ft 474 kts 61°
2026-05-07 18:47 53.22121 7.49877 25112 ft 474 kts 61°
2026-05-07 18:47 53.23706 7.54623 25118 ft 474 kts 61°
2026-05-07 18:48 53.25328 7.59488 25118 ft 474 kts 61°
2026-05-07 18:48 53.26927 7.64301 25112 ft 474 kts 61°
2026-05-07 18:48 53.28525 7.69123 25117 ft 474 kts 61°
2026-05-07 18:48 53.30099 7.73880 25105 ft 474 kts 61°
2026-05-07 18:49 53.31691 7.78696 25110 ft 474 kts 61°
2026-05-07 18:49 53.33287 7.83528 24886 ft 473 kts 61°
2026-05-07 18:49 53.34872 7.88343 23897 ft 472 kts 61°
2026-05-07 18:49 53.36447 7.93152 22916 ft 470 kts 61°
2026-05-07 18:50 53.38005 7.97926 22068 ft 464 kts 61°
2026-05-07 18:50 53.39540 8.02643 21260 ft 458 kts 61°
2026-05-07 18:50 53.41058 8.07312 20453 ft 453 kts 61°
2026-05-07 18:50 53.42557 8.11926 19691 ft 448 kts 61°
2026-05-07 18:51 53.44021 8.16435 19447 ft 431 kts 61°
2026-05-07 18:51 53.45418 8.20746 19318 ft 411 kts 61°
2026-05-07 18:51 53.46756 8.24880 19198 ft 395 kts 61°
2026-05-07 18:51 53.48035 8.28842 19071 ft 379 kts 61°
2026-05-07 18:52 53.49267 8.32661 18928 ft 365 kts 61°
2026-05-07 18:52 53.50462 8.36363 18595 ft 357 kts 61°
2026-05-07 18:52 53.51638 8.40009 18132 ft 354 kts 61°
2026-05-07 18:52 53.52801 8.43624 17752 ft 349 kts 61°
2026-05-07 18:53 53.53958 8.47228 17489 ft 350 kts 61°
2026-05-07 18:53 53.55116 8.50836 17224 ft 350 kts 61°
2026-05-07 18:53 53.56266 8.54435 16959 ft 349 kts 62°
2026-05-07 18:53 53.57023 8.56810 16784 ft 348 kts 62°
2026-05-07 18:54 53.58162 8.60391 16523 ft 347 kts 61°
2026-05-07 18:54 53.59299 8.63968 16263 ft 345 kts 61°
2026-05-07 18:54 53.60431 8.67524 16011 ft 344 kts 61°
2026-05-07 18:54 53.61562 8.71075 15747 ft 343 kts 61°
2026-05-07 18:55 53.62685 8.74604 15491 ft 342 kts 62°
2026-05-07 18:55 53.63807 8.78132 15231 ft 341 kts 61°
2026-05-07 18:55 53.64922 8.81652 15007 ft 339 kts 62°
2026-05-07 18:55 53.66027 8.85157 14753 ft 338 kts 61°
2026-05-07 18:56 53.67129 8.88653 14506 ft 337 kts 62°
2026-05-07 18:56 53.68225 8.92139 14270 ft 335 kts 62°
2026-05-07 18:56 53.69313 8.95609 14029 ft 335 kts 62°
2026-05-07 18:56 53.70397 8.99069 13776 ft 333 kts 62°
2026-05-07 18:57 53.71479 9.02519 13505 ft 331 kts 62°
2026-05-07 18:57 53.72552 9.05950 13241 ft 330 kts 62°
2026-05-07 18:57 53.73617 9.09365 12973 ft 328 kts 62°
2026-05-07 18:57 53.74678 9.12765 12708 ft 326 kts 62°
2026-05-07 18:58 53.75733 9.16151 12448 ft 325 kts 62°
2026-05-07 18:58 53.76778 9.19521 12186 ft 323 kts 62°
2026-05-07 18:58 53.77819 9.22875 11926 ft 322 kts 62°
2026-05-07 18:58 53.78855 9.26211 11680 ft 320 kts 62°
2026-05-07 18:59 53.79676 9.29677 11426 ft 317 kts 79°
2026-05-07 18:59 53.79655 9.33367 11173 ft 315 kts 104°
2026-05-07 18:59 53.78750 9.36696 10908 ft 314 kts 128°
2026-05-07 18:59 53.77134 9.39100 10536 ft 309 kts 152°
2026-05-07 19:00 53.75113 9.40169 10171 ft 304 kts 172°
2026-05-07 19:00 53.73036 9.40587 9838 ft 298 kts 174°
2026-05-07 19:00 53.70990 9.40921 9484 ft 293 kts 174°
2026-05-07 19:00 53.68972 9.41218 9134 ft 288 kts 174°
2026-05-07 19:01 53.66989 9.41512 8791 ft 284 kts 173°
2026-05-07 19:01 53.65120 9.42392 8458 ft 278 kts 150°
2026-05-07 19:01 53.63482 9.44109 8128 ft 277 kts 145°
2026-05-07 19:01 53.61894 9.45938 7768 ft 276 kts 144°
2026-05-07 19:02 53.60320 9.47763 7384 ft 272 kts 144°
2026-05-07 19:02 53.58819 9.49494 7002 ft 258 kts 144°
2026-05-07 19:02 53.57376 9.51148 6643 ft 247 kts 144°
2026-05-07 19:02 53.55966 9.52763 6281 ft 243 kts 142°
2026-05-07 19:03 53.54806 9.54750 5869 ft 234 kts 126°
2026-05-07 19:03 53.53837 9.56930 5491 ft 233 kts 124°
2026-05-07 19:03 53.52893 9.59120 5109 ft 230 kts 124°
2026-05-07 19:03 53.51960 9.61293 4732 ft 228 kts 124°
2026-05-07 19:04 53.51043 9.63432 4449 ft 224 kts 124°
2026-05-07 19:04 53.50386 9.65750 4186 ft 220 kts 98°
2026-05-07 19:04 53.50513 9.68290 3932 ft 220 kts 77°
2026-05-07 19:04 53.50910 9.70770 3672 ft 219 kts 74°
2026-05-07 19:05 53.51328 9.73186 3413 ft 212 kts 74°
2026-05-07 19:05 53.51739 9.75521 3158 ft 205 kts 72°
2026-05-07 19:05 53.52443 9.77550 3006 ft 201 kts 52°
2026-05-07 19:05 53.53331 9.79302 2753 ft 192 kts 51°
2026-05-07 19:06 53.54176 9.80975 2497 ft 184 kts 52°
2026-05-07 19:06 53.55757 9.84142 2017 ft 170 kts 52°
2026-05-07 19:06 53.56507 9.85651 1787 ft 167 kts 52°
2026-05-07 19:07 53.57249 9.87144 1559 ft 165 kts 52°
2026-05-07 19:07 53.57974 9.88603 1332 ft 158 kts 52°
2026-05-07 19:07 53.58650 9.89964 1126 ft 146 kts 51°
2026-05-07 19:07 53.59281 9.91236 923 ft 139 kts 51°
2026-05-07 19:08 53.59899 9.92482 740 ft 140 kts 50°
2026-05-07 19:08 53.60516 9.93728 541 ft 139 kts 50°
2026-05-07 19:08 53.61137 9.94982 361 ft 139 kts 50°
2026-05-07 19:08 53.61758 9.96246 172 ft 139 kts 49°
2026-05-07 19:09 53.62380 9.97480 41 ft 133 kts 51°
2026-05-07 19:09 53.62889 9.98524 44 ft 97 kts 50°
2026-05-07 19:09 53.63206 9.99162 47 ft 37 kts 49°
2026-05-07 19:09 53.63291 9.99423 47 ft 23 kts 83°
2026-05-07 19:10 53.63281 9.99618 48 ft 11 kts 98°
2026-05-07 19:10 53.63277 9.99658 48 ft 0 kts 99°
2026-05-07 19:11 53.63277 9.99659 48 ft 0 kts 99°
2026-05-07 19:11 53.63275 9.99674 48 ft 3 kts 102°
2026-05-07 19:11 53.63263 9.99711 47 ft 5 kts 128°
2026-05-07 19:11 53.63230 9.99752 48 ft 7 kts 150°
2026-05-07 19:12 53.63184 9.99794 48 ft 8 kts 153°
2026-05-07 19:12 53.63128 9.99843 48 ft 10 kts 152°
2026-05-07 19:12 53.63065 9.99898 48 ft 11 kts 153°
2026-05-07 19:12 53.63000 9.99953 48 ft 8 kts 153°
2026-05-07 19:13 53.62948 9.99998 48 ft 9 kts 152°
2026-05-07 19:13 53.62886 10.00044 48 ft 10 kts 165°
2026-05-07 19:13 53.62816 10.00096 48 ft 12 kts 152°
2026-05-07 19:13 53.62751 10.00153 48 ft 5 kts 152°
2026-05-07 19:14 53.62750 10.00194 48 ft 4 kts 75°
2026-05-07 19:14 53.62764 10.00244 48 ft 6 kts 63°
2026-05-07 19:14 53.62774 10.00277 47 ft 2 kts 61°
2026-05-07 19:14 53.62775 10.00277 47 ft 0 kts 61°